Location: Branche des Alpilles
(43.6087°N, 4.6976°E)
Time: 04:17:32
(UTC+00:00)

Cosmos 1934 Rocket - Pass Details

Date: 30 November 2020
Orbit: 937 x 1000 km, 83.0° (Epoch: 24 January)

Event Time Altitude Azimuth Distance (km) Brightness Sun altitude
Rises 18:35:58 0° 352° (N) 3,733 7.1 -26.5°
Reaches altitude 10° 18:38:31 10° 354° (N) 2,776 6.4 -27.0°
Maximum altitude 18:44:55 82° 83° (E) 1,007 3.8 -28.1°
Drops below altitude 10° 18:51:12 10° 170° (S) 2,728 6.3 -29.3°
Sets 18:53:41 0° 172° (S) 3,663 7.0 -29.7°
